"Pseudo-MPEC" for P11JVhZ

Created 2023 Sep 19 11:22:38 UT using Find_Orb

Click here for an explanation of pseudo-MPECs

 
 Astrometry: 
     P11JVhZ  C2023 06 25?tf\Ooy.bDT*a!6K1t#pakH3sPMomR)b+7J)kTjFEoWc1Q@',[M.F51
     P11JVhZ  C2023 06 25H^N'T(t`16kH`umo?::iKWTWQ\cfcK4=d=yEsXWdIYJxMsrAgalDF51
     P11JVhZ  C2023 07 13;IOQf;nl*fVGeNF8,#/7'bdZ_hu+fj/vu1DA;0wuKchW@jAWK)uLF52
     P11JVhZ  C2023 07 13=Zn8fZ\uP2JWlWACtqo7_WOG5!P0'mku_1/v`:.0V?V3aaXox=OVF52
     P11JVhZ  C2023 07 13FwE!'U(OW41gdK's\788JylfW;NkNuhsvI)Yx)jgoWQ@8JVO=IT;F52
     P11JVhZ  C2023 08 19tNWlVHAQjn(9w;8'+YAstrometryP=0p/5M9RPGHkAPH3-J.8:#@F52
     P11JVhZ  C2023 08 19.5[redacted;AY1^i\mX/,0_S3*Nc-pW$cL')4\s4=:G)R6eEIN,F52
     P11JVhZ  C2023 08 19Yg9lqB0$^Z6bCD'Pw:eZlUEk$sQ8`k*2gn6KOgLB1SLkSjCGU#meF52
     P11JVhZ  C2023 08 26#9ivj'75fIZ9'c@I64iCwg#xCZF.]_QZ)YqsEtuY3WC-Y$:Gty4QF52
     P11JVhZ  C2023 08 26R12xso]K)@^T9]NiF_Ir'tuNIN=Z(2XV\o[e6?@Onr0X4x*;M%DvF52
     P11JVhZ  C2023 08 26.;Phwc!SEp4d`S*6/y.(c':wYDm,$k(f,YT)vU]uK_f%jVhC?p,FF52
     P11JVhZ  C2023 09 070^%/+f3vHy\[-eW=,CNFc-j@u3_Fs_01?^R8-+Nh9:Vp,SxR_B65F52
     P11JVhZ  C2023 09 07/O[)hkn-11k=#RIRAbFArMKoZgTVXi@-$#vpq][((R`[!8=8C5.JF52
     P11JVhZ  C2023 09 08`#*(2;:![GZ^C*Ue8/=RjsjF6\ijmfnRHmb[(d;f-EuhdgQ(?uUcF52
     P11JVhZ  C2023 09 08AkEdq6W8*/:dVWE^A;$(`TJKAU-aPb$K-JiY`!KD0?bAv-%q*Tc^F52
     P11JVhZ  C2023 09 08$hY4ut7yDxI3Wc4(ayHI@x0yJ3]$Pu\UpmO5*(Y(QF:n[v/4x2.wF52
     P11JVhZ  C2023 09 10w-!dk%:fa2u2%KGcSZE__-;6qO4)7eEfDjE^0-J,sO1@lT8W4QePF52
     P11JVhZ  C2023 09 10A\YV?qupD:a]JH-0A7A;]`oO=*'\4rmX8.l4JjN1MSZ5cU_q=EfmF52
     P11JVhZ  C2023 09 13JNS^PKRcclick=Jq/_ug,'t@p^vPwmnv3a8^5kveqN(4yyx8tRY[F52
     P11JVhZ  C2023 09 133.U^lQ4Cx(?fCW$X#xNO(Z:t.F-iZ;yaP,*)5IIX[Mk8MCfV#\8]F52
     P11JVhZ  C2023 09 13w2Fwti15h)w?6[K+hereK]@x(X%Kx\)Zt@1af/[VtpD$G=:)??hDF52
     P11JVhZ  C2023 09 13V.v_@d^mRX4?T'0!KU%rr?Ul^C6;Q3Tq5riMfv+T:%.AforYsB^NF52
     P11JVhZ* C2023 09 18HWg2lV]uapO3_G2gRqulv^30W0nexplanation_X%_yl,YiTc9]vF51
     P11JVhZ  C2023 09 18x_Sd+[VR2:?vKOjdaJ#;/trx)[k@2i%?-,JiVUVvQ[Kuy3y(o2gdF51
     P11JVhZ  C2023 09 18_IV5y+T-kXP-5_=ejR6eQ#?T+4@b^G%nM:n3HUXZ_fID]44j%SA(F51

Station data:
(F51) Pan-STARRS 1, Haleakala  (N20.707234 W156.255910)  US/Hawaii.
   Observers J. Bulger, T. Lowe, A. Schultz, M. Willman. Measurers K.
   Chambers, S. Chastel, T. de Boer, L. Denneau, J. Fairlamb, H. Flewelling,
   M. Huber, C.-C. Lin, E. Magnier, Y. Ramanjooloo, R. Wainscoat, R. Weryk.
   1.8-m Ritchey-Chrétien + CCD.
(F52) Pan-STARRS 2, Haleakala  (N20.707382 W156.255910)  US/Hawaii.
   Observers J. Bulger, T. Dukes, T. Lowe, A. Schultz, M. Willman. Measurers
   K. Chambers, S. Chastel, T. de Boer, L. Denneau, J. Fairlamb, H.
   Flewelling, M. Huber, C.-C. Lin, E. Magnier, Y. Ramanjooloo, R. Wainscoat,
   R. Weryk. 1.8-m Ritchey-Chrétien + CCD.

Orbital elements:  P11JVhZ
   Perihelion 2023 Jun 26.43979 +/- 0.00222 TT = 10:33:18 (JD 2460121.93979)
Epoch 2023 Sep 18.0 TT = JDT 2460205.5   Earth MOID: 0.4952      AutoNEOCP
M  36.66230422 +/- 0.0014           (J2000 ecliptic)
n   0.43875314 +/- 7.03e-6          Peri.  173.16355 +/- 0.0012
a   1.71523075 +/- 1.83e-5          Node   146.68281 +/- 0.00020
e   0.1215046 +/- 6.49e-6           Incl.   22.02969 +/- 0.00018
P   2.25/820.49d           H 20.08  G  0.15   U  4.8
q 1.50682222 +/- 6e-6    Q 1.92363928 +/- 3.14e-5
From 25 observations 2023 June 25-Sept. 18; mean residual 0".16
Residuals in arcseconds: 
230625 F51  .13+  .12-    230826 F52  .09-  .09+    230913 F52  .05-  .21+    
230625 F51  .14-  .14-    230826 F52  .01+  .22+    230913 F52  .09+  .14+    
230713 F52  .09+  .11+    230907 F52  .17-  .13-    230913 F52  .05+  .15+    
230713 F52  .18+  .57+    230907 F52  .02-  .05-    230913 F52  .13-  .26+    
230713 F52  .23-  .20-    230908 F52  .11+  .05-    230918 F51  .10+  .04-    
230819 F52  .16-  .41-    230908 F52  .11-  .01+    230918 F51  .05-  .08-    
230819 F52  .04+  .04-    230908 F52  .19+  .11-    230918 F51  .08-  .19-    
230819 F52  .02+  .01-    230910 F52  .22+  .17-    
230826 F52  .13+  .07-    230910 F52  .16-  .14+    

Ephemerides (geocentric):
Date (UTC) HH   RA             Dec           delta  r     elong  mag " sig PA
---- --------  ------------   ------------  ------ ------ -----  --- --------
2023 09 19 11  02 10 48.362   -24 02 31.97  .66002 1.5602 138.2 21.3 .067  61
2023 09 19 12  02 10 48.212   -24 03 48.83  .66002 1.5603 138.3 21.3 .067  61
2023 09 19 13  02 10 48.057   -24 05 05.65  .66003 1.5603 138.3 21.3 .068  61
2023 09 19 14  02 10 47.896   -24 06 22.43  .66003 1.5604 138.3 21.3 .068  61
2023 09 19 15  02 10 47.731   -24 07 39.17  .66003 1.5604 138.3 21.3 .068  61
2023 09 19 16  02 10 47.560   -24 08 55.88  .66003 1.5605 138.3 21.3 .069  61
2023 09 19 17  02 10 47.385   -24 10 12.55  .66004 1.5605 138.3 21.3 .069  61
2023 09 19 18  02 10 47.204   -24 11 29.19  .66004 1.5606 138.3 21.3 .069  61
2023 09 19 19  02 10 47.018   -24 12 45.79  .66004 1.5606 138.3 21.3 .070  61
2023 09 19 20  02 10 46.828   -24 14 02.35  .66005 1.5607 138.3 21.3 .070  61
2023 09 19 21  02 10 46.632   -24 15 18.87  .66005 1.5607 138.4 21.3 .070  61
2023 09 19 22  02 10 46.431   -24 16 35.35  .66006 1.5608 138.4 21.3 .071  61
2023 09 19 23  02 10 46.225   -24 17 51.80  .66006 1.5608 138.4 21.3 .071  61
2023 09 20 00  02 10 46.014   -24 19 08.21  .66007 1.5609 138.4 21.3 .071  61
2023 09 20 01  02 10 45.798   -24 20 24.58  .66007 1.5609 138.4 21.3 .072  61
2023 09 20 02  02 10 45.576   -24 21 40.91  .66008 1.5610 138.4 21.3 .072  61
2023 09 20 03  02 10 45.350   -24 22 57.21  .66008 1.5610 138.4 21.3 .072  61
2023 09 20 04  02 10 45.119   -24 24 13.46  .66009 1.5611 138.4 21.3 .073  62
2023 09 20 05  02 10 44.883   -24 25 29.68  .66010 1.5611 138.4 21.3 .073  62
2023 09 20 06  02 10 44.641   -24 26 45.86  .66010 1.5612 138.5 21.3 .073  62
2023 09 20 07  02 10 44.395   -24 28 02.00  .66011 1.5612 138.5 21.3 .074  62
2023 09 20 08  02 10 44.143   -24 29 18.10  .66012 1.5613 138.5 21.3 .074  62
2023 09 20 09  02 10 43.887   -24 30 34.16  .66013 1.5613 138.5 21.3 .074  62
2023 09 20 10  02 10 43.625   -24 31 50.18  .66013 1.5614 138.5 21.3 .075  62
2023 09 20 11  02 10 43.359   -24 33 06.16  .66014 1.5614 138.5 21.3 .075  62
2023 09 20 12  02 10 43.087   -24 34 22.10  .66015 1.5615 138.5 21.3 .075  62
2023 09 20 13  02 10 42.810   -24 35 38.00  .66016 1.5615 138.5 21.3 .076  62
2023 09 20 14  02 10 42.529   -24 36 53.86  .66017 1.5616 138.5 21.3 .076  62
2023 09 20 15  02 10 42.242   -24 38 09.69  .66018 1.5616 138.6 21.3 .076  62
2023 09 20 16  02 10 41.950   -24 39 25.47  .66019 1.5617 138.6 21.3 .077  62
2023 09 20 17  02 10 41.654   -24 40 41.21  .66020 1.5617 138.6 21.3 .077  62
2023 09 20 18  02 10 41.352   -24 41 56.91  .66021 1.5618 138.6 21.3 .077  62
2023 09 20 19  02 10 41.045   -24 43 12.56  .66022 1.5618 138.6 21.3 .078  62
2023 09 20 20  02 10 40.733   -24 44 28.18  .66023 1.5619 138.6 21.3 .078  62
2023 09 20 21  02 10 40.416   -24 45 43.76  .66024 1.5619 138.6 21.3 .078  62
2023 09 20 22  02 10 40.095   -24 46 59.29  .66025 1.5620 138.6 21.3 .079  62
2023 09 20 23  02 10 39.768   -24 48 14.79  .66026 1.5620 138.6 21.3 .079  62
2023 09 21 00  02 10 39.436   -24 49 30.24  .66028 1.5621 138.7 21.3 .079  62
2023 09 21 01  02 10 39.099   -24 50 45.65  .66029 1.5621 138.7 21.3 .080  62
2023 09 21 02  02 10 38.758   -24 52 01.02  .66030 1.5622 138.7 21.3 .080  62
2023 09 21 03  02 10 38.411   -24 53 16.35  .66031 1.5622 138.7 21.3 .080  62
2023 09 21 04  02 10 38.059   -24 54 31.63  .66033 1.5623 138.7 21.3 .081  62
2023 09 21 05  02 10 37.702   -24 55 46.87  .66034 1.5623 138.7 21.3 .081  62
2023 09 21 06  02 10 37.341   -24 57 02.07  .66035 1.5624 138.7 21.3 .081  62
2023 09 21 07  02 10 36.974   -24 58 17.23  .66037 1.5624 138.7 21.3 .082  62
2023 09 21 08  02 10 36.602   -24 59 32.35  .66038 1.5625 138.7 21.3 .082  62
2023 09 21 09  02 10 36.226   -25 00 47.42  .66040 1.5625 138.7 21.3 .082  62
2023 09 21 10  02 10 35.844   -25 02 02.45  .66041 1.5626 138.8 21.3 .083  62